Погода в Бандунду

Демократическая Республика Конго     4°33′38″S   18°26′12″E
темп.,
°C
ветер,
м/с
пор.,
м/с
влажн.,
%
обл.,
%
осадки,
мм/ч
давл.,
гПа
погр.,
м
2 декабря, чт
чт201:00+21юв0093100 0.0 101015
04:00+21ююз119292 0.0 101037
07:00+22юв128761 0.0 1012183
10:00+25ююв1276100 0.0 1011458
13:00+27з227132 0.0 1008553
16:00+28сз116935 0.0 1006584
19:00+23ссз009184 0.4 100811
22:00+22юв009498 0.0 101011
3 декабря, пт
пт301:00+21ююз1195100 0.0 100911
04:00+21ююв1195100 0.1 100912
07:00+23вюв129291 0.1 1011129
10:00+26ююв237590 0.1 1012545
13:00+31зюз1257100 0.1 10081401
16:00+30зсз226833 0.1 1006829
19:00+24зюз118999 1.1 100811
22:00+23ююз1192100 0.0 101011
4 декабря, сб
сб401:00+22ююз0095100 0.8 100911
04:00+22ююз1196100 0.3 101020
07:00+23юз0094100 1.5 1012110
10:00+28сз2272100 3.6 1011616
13:00+30зсз2266100 4.3 10091342
16:00+26сз138882 2.6 1008199
19:00+23сз119570 3.7 100913
22:00+22зюз119899 2.9 101126
5 декабря, вс
вс501:00+21зсз1196100 3.3 101014
04:00+21сз0098100 0.4 101112
07:00+23ююз0194100 0.4 1012115
10:00+28зсз2273100 0.3 1012730
13:00+30зсз2262100 0.5 10091205
16:00+28зсз237644 2.1 1007322
19:00+24з1185100 2.2 100815
22:00+22ю1192100 0.1 101014
6 декабря, пн
пн601:00+22ю119496 0.1 100912
04:00+21ююв1195100 0.2 101011
07:00+23юв1391100 0.4 1012150
10:00+29юв23626 0.0 1012821
13:00+30ююз335924 1.4 10091215
16:00+29ююз24680 0.2 1006722
19:00+23ю24945 1.1 100872
22:00+21юв2796100 0.1 1011162